Time,TemperatureF,DewpointF,PressureIn,WindDirection,WindDirectionDegrees,WindSpeedMPH,WindSpeedGustMPH,Humidity,HourlyPrecipIn,Conditions,Clouds,dailyrainin,SolarRadiationWatts/m^2,SoftwareType,DateUTC
2013-03-03 00:01:00,46.0,46.0,-100.00,West,281,0.0,2.0,100,0.00,,,0.00,0.000000,,2013-03-03 08:01:00,
2013-03-03 00:11:00,46.0,46.0,-100.00,West,281,0.0,2.0,100,0.00,,,0.00,0.000000,,2013-03-03 08:11:00,
2013-03-03 00:21:00,46.0,46.0,-100.00,West,281,0.0,2.0,100,0.00,,,0.00,0.000000,,2013-03-03 08:21:00,
2013-03-03 00:31:00,46.0,46.0,-100.00,West,281,0.0,2.0,100,0.00,,,0.00,0.000000,,2013-03-03 08:31:00,
2013-03-03 00:41:00,44.0,44.0,-100.00,North,5,1.0,8.0,100,0.00,,,0.00,0.000000,,2013-03-03 08:41:00,
2013-03-03 01:01:00,44.0,44.0,-100.00,North,5,1.0,8.0,100,0.00,,,0.00,0.000000,,2013-03-03 09:01:00,
2013-03-03 01:11:00,44.0,44.0,-100.00,North,5,1.0,8.0,100,0.00,,,0.00,0.000000,,2013-03-03 09:11:00,
2013-03-03 01:21:00,44.0,44.0,-100.00,North,5,1.0,8.0,100,0.00,,,0.00,0.000000,,2013-03-03 09:21:00,
2013-03-03 01:32:00,44.0,44.0,-100.00,North,5,1.0,8.0,100,0.00,,,0.00,0.000000,,2013-03-03 09:32:00,
2013-03-03 01:41:00,44.0,44.0,-100.00,NNE,19,0.0,15.0,100,0.00,,,0.00,0.000000,,2013-03-03 09:41:00,
2013-03-03 02:01:00,44.0,44.0,-100.00,NNE,19,0.0,15.0,100,0.00,,,0.00,0.000000,,2013-03-03 10:01:00,
2013-03-03 02:11:00,44.0,44.0,-100.00,NNE,19,0.0,15.0,100,0.00,,,0.00,0.000000,,2013-03-03 10:11:00,
2013-03-03 02:21:00,44.0,44.0,-100.00,NNE,19,0.0,15.0,100,0.00,,,0.00,0.000000,,2013-03-03 10:21:00,
2013-03-03 02:31:00,44.0,44.0,-100.00,NNE,19,0.0,15.0,100,0.00,,,0.00,0.000000,,2013-03-03 10:31:00,
2013-03-03 02:41:00,44.0,44.0,-100.00,ENE,59,0.0,4.0,100,0.00,,,0.00,0.000000,,2013-03-03 10:41:00,
2013-03-03 03:01:00,44.0,44.0,-100.00,ENE,59,0.0,4.0,100,0.00,,,0.00,0.000000,,2013-03-03 11:01:00,
2013-03-03 03:11:00,44.0,44.0,-100.00,ENE,59,0.0,4.0,100,0.00,,,0.00,0.000000,,2013-03-03 11:11:00,
2013-03-03 03:21:00,44.0,44.0,-100.00,ENE,59,0.0,4.0,100,0.00,,,0.00,0.000000,,2013-03-03 11:21:00,
2013-03-03 03:31:00,44.0,44.0,-100.00,ENE,59,0.0,4.0,100,0.00,,,0.00,0.000000,,2013-03-03 11:31:00,
2013-03-03 03:41:00,45.0,45.0,-100.00,NNE,29,0.0,11.0,100,0.00,,,0.00,0.000000,,2013-03-03 11:41:00,
2013-03-03 04:01:00,45.0,45.0,-100.00,NNE,29,0.0,11.0,100,0.00,,,0.00,0.000000,,2013-03-03 12:01:00,
2013-03-03 04:11:00,45.0,45.0,-100.00,NNE,29,0.0,11.0,100,0.00,,,0.00,0.000000,,2013-03-03 12:11:00,
2013-03-03 04:21:00,45.0,45.0,-100.00,NNE,29,0.0,11.0,100,0.00,,,0.00,0.000000,,2013-03-03 12:21:00,
2013-03-03 04:32:00,45.0,45.0,-100.00,NNE,29,0.0,11.0,100,0.00,,,0.00,0.000000,,2013-03-03 12:32:00,
2013-03-03 04:41:00,45.0,45.0,-100.00,NNE,30,0.0,3.0,100,0.00,,,0.00,0.000000,,2013-03-03 12:41:00,
2013-03-03 05:01:00,45.0,45.0,-100.00,NNE,30,0.0,3.0,100,0.00,,,0.00,0.000000,,2013-03-03 13:01:00,
2013-03-03 05:11:00,45.0,45.0,-100.00,NNE,30,0.0,3.0,100,0.00,,,0.00,0.000000,,2013-03-03 13:11:00,
2013-03-03 05:21:00,45.0,45.0,-100.00,NNE,30,0.0,3.0,100,0.00,,,0.00,0.000000,,2013-03-03 13:21:00,
2013-03-03 05:32:00,45.0,45.0,-100.00,NNE,30,0.0,3.0,100,0.00,,,0.00,0.000000,,2013-03-03 13:32:00,
2013-03-03 05:41:00,45.0,45.0,-100.00,ENE,69,0.0,4.0,100,0.00,,,0.00,0.000000,,2013-03-03 13:41:00,
2013-03-03 06:01:00,45.0,45.0,-100.00,ENE,69,0.0,4.0,100,0.00,,,0.00,0.000000,,2013-03-03 14:01:00,
2013-03-03 06:11:00,45.0,45.0,-100.00,ENE,69,0.0,4.0,100,0.00,,,0.00,0.000000,,2013-03-03 14:11:00,
2013-03-03 06:21:00,45.0,45.0,-100.00,ENE,69,0.0,4.0,100,0.00,,,0.00,0.000000,,2013-03-03 14:21:00,
2013-03-03 06:31:00,45.0,45.0,-100.00,ENE,69,0.0,4.0,100,0.00,,,0.00,0.000000,,2013-03-03 14:31:00,
2013-03-03 06:41:00,43.0,43.0,-100.00,North,350,0.0,6.0,100,0.00,,,0.00,0.000000,,2013-03-03 14:41:00,
2013-03-03 07:01:00,43.0,43.0,-100.00,North,350,0.0,6.0,100,0.00,,,0.00,0.000000,,2013-03-03 15:01:00,
2013-03-03 07:11:00,43.0,43.0,-100.00,North,350,0.0,6.0,100,0.00,,,0.00,0.000000,,2013-03-03 15:11:00,
2013-03-03 07:22:00,43.0,43.0,-100.00,North,350,0.0,6.0,100,0.00,,,0.00,0.000000,,2013-03-03 15:22:00,
2013-03-03 07:31:00,43.0,43.0,-100.00,North,350,0.0,6.0,100,0.00,,,0.00,0.000000,,2013-03-03 15:31:00,
2013-03-03 07:41:00,43.0,43.0,-100.00,SE,129,0.0,3.0,100,0.00,,,0.00,7.000000,,2013-03-03 15:41:00,
2013-03-03 08:01:00,43.0,43.0,-100.00,SE,129,0.0,3.0,100,0.00,,,0.00,7.000000,,2013-03-03 16:01:00,
2013-03-03 08:12:00,43.0,43.0,-100.00,SE,129,0.0,3.0,100,0.00,,,0.00,7.000000,,2013-03-03 16:12:00,
2013-03-03 08:21:00,43.0,43.0,-100.00,SE,129,0.0,3.0,100,0.00,,,0.00,7.000000,,2013-03-03 16:21:00,
2013-03-03 08:31:00,43.0,43.0,-100.00,SE,129,0.0,3.0,100,0.00,,,0.00,7.000000,,2013-03-03 16:31:00,
2013-03-03 08:41:00,46.0,46.0,-100.00,ESE,102,0.0,2.0,100,0.00,,,-99.99,79.000000,,2013-03-03 16:41:00,
2013-03-03 09:01:00,46.0,46.0,-100.00,ESE,102,0.0,2.0,100,0.00,,,-99.99,79.000000,,2013-03-03 17:01:00,
2013-03-03 09:11:00,46.0,46.0,-100.00,ESE,102,0.0,2.0,100,0.00,,,-99.99,79.000000,,2013-03-03 17:11:00,
2013-03-03 09:22:00,46.0,46.0,-100.00,ESE,102,0.0,2.0,100,0.00,,,-99.99,79.000000,,2013-03-03 17:22:00,
2013-03-03 09:32:00,46.0,46.0,-100.00,ESE,102,0.0,2.0,100,0.00,,,-99.99,79.000000,,2013-03-03 17:32:00,
2013-03-03 09:41:00,46.0,46.0,-100.00,East,92,1.0,6.0,100,0.00,,,0.00,150.000000,,2013-03-03 17:41:00,
2013-03-03 10:01:00,46.0,46.0,-100.00,East,92,1.0,6.0,100,0.00,,,0.00,150.000000,,2013-03-03 18:01:00,
2013-03-03 10:11:00,46.0,46.0,-100.00,East,92,1.0,6.0,100,0.00,,,0.00,150.000000,,2013-03-03 18:11:00,
2013-03-03 10:21:00,46.0,46.0,-100.00,East,92,1.0,6.0,100,0.00,,,0.00,150.000000,,2013-03-03 18:21:00,
2013-03-03 10:31:00,46.0,46.0,-100.00,East,92,1.0,6.0,100,0.00,,,0.00,150.000000,,2013-03-03 18:31:00,
2013-03-03 10:41:00,49.0,47.0,-100.00,SSW,211,1.0,7.0,94,0.00,,,0.00,375.000000,,2013-03-03 18:41:00,
2013-03-03 11:01:00,49.0,47.0,-100.00,SSW,211,1.0,7.0,94,0.00,,,0.00,375.000000,,2013-03-03 19:01:00,
2013-03-03 11:11:00,49.0,47.0,-100.00,SSW,211,1.0,7.0,94,0.00,,,0.00,375.000000,,2013-03-03 19:11:00,
2013-03-03 11:21:00,49.0,47.0,-100.00,SSW,211,1.0,7.0,94,0.00,,,0.00,375.000000,,2013-03-03 19:21:00,
2013-03-03 11:31:00,49.0,47.0,-100.00,SSW,211,1.0,7.0,94,0.00,,,0.00,375.000000,,2013-03-03 19:31:00,
2013-03-03 12:01:00,59.0,50.0,-100.00,East,89,1.0,17.0,71,0.00,,,0.00,621.000000,,2013-03-03 20:01:00,
2013-03-03 13:01:00,61.0,46.0,-100.00,East,82,2.0,6.0,57,-99.99,,,0.00,851.000000,,2013-03-03 21:01:00,
2013-03-03 14:01:00,62.0,42.0,-100.00,East,81,1.0,8.0,48,-99.99,,,0.00,773.000000,,2013-03-03 22:01:00,
2013-03-03 15:01:00,62.0,40.0,-100.00,NE,35,1.0,28.0,44,-99.99,,,0.00,668.000000,,2013-03-03 23:01:00,
2013-03-03 15:41:00,60.0,36.0,-100.00,NNE,32,2.0,9.0,41,0.00,,,0.00,515.000000,,2013-03-03 23:41:00,
2013-03-03 16:01:00,60.0,36.0,-100.00,NNE,32,2.0,9.0,41,0.00,,,0.00,515.000000,,2013-03-04 00:01:00,
2013-03-03 16:11:00,60.0,36.0,-100.00,NNE,32,2.0,9.0,41,0.00,,,0.00,515.000000,,2013-03-04 00:11:00,
2013-03-03 16:21:00,60.0,36.0,-100.00,NNE,32,2.0,9.0,41,0.00,,,0.00,515.000000,,2013-03-04 00:21:00,
2013-03-03 16:32:00,60.0,36.0,-100.00,NNE,32,2.0,9.0,41,0.00,,,0.00,515.000000,,2013-03-04 00:32:00,
2013-03-03 16:41:00,55.0,36.0,-100.00,NE,39,1.0,14.0,49,0.00,,,0.00,216.000000,,2013-03-04 00:41:00,
2013-03-03 17:01:00,55.0,36.0,-100.00,NE,39,1.0,14.0,49,0.00,,,0.00,216.000000,,2013-03-04 01:01:00,
2013-03-03 17:11:00,55.0,36.0,-100.00,NE,39,1.0,14.0,49,0.00,,,0.00,216.000000,,2013-03-04 01:11:00,
2013-03-03 17:21:00,55.0,36.0,-100.00,NE,39,1.0,14.0,49,0.00,,,0.00,216.000000,,2013-03-04 01:21:00,
2013-03-03 17:31:00,55.0,36.0,-100.00,NE,39,1.0,14.0,49,0.00,,,0.00,216.000000,,2013-03-04 01:31:00,
2013-03-03 17:41:00,49.0,38.0,-100.00,SW,219,0.0,6.0,65,0.00,,,0.00,38.000000,,2013-03-04 01:41:00,
2013-03-03 18:01:00,49.0,38.0,-100.00,SW,219,0.0,6.0,65,0.00,,,0.00,38.000000,,2013-03-04 02:01:00,
2013-03-03 18:11:00,49.0,38.0,-100.00,SW,219,0.0,6.0,65,0.00,,,0.00,38.000000,,2013-03-04 02:11:00,
2013-03-03 18:22:00,49.0,38.0,-100.00,SW,219,0.0,6.0,65,0.00,,,0.00,38.000000,,2013-03-04 02:22:00,
2013-03-03 18:31:00,49.0,38.0,-100.00,SW,219,0.0,6.0,65,0.00,,,0.00,38.000000,,2013-03-04 02:31:00,
2013-03-03 18:41:00,45.0,36.0,-100.00,NNW,343,1.0,9.0,71,0.00,,,0.00,5.000000,,2013-03-04 02:41:00,
2013-03-03 19:01:00,45.0,36.0,-100.00,NNW,343,1.0,9.0,71,0.00,,,0.00,5.000000,,2013-03-04 03:01:00,
2013-03-03 19:11:00,45.0,36.0,-100.00,NNW,343,1.0,9.0,71,0.00,,,0.00,5.000000,,2013-03-04 03:11:00,
2013-03-03 19:21:00,45.0,36.0,-100.00,NNW,343,1.0,9.0,71,0.00,,,0.00,5.000000,,2013-03-04 03:21:00,
2013-03-03 19:31:00,45.0,36.0,-100.00,NNW,343,1.0,9.0,71,0.00,,,0.00,5.000000,,2013-03-04 03:31:00,
2013-03-03 19:41:00,42.0,39.0,-100.00,WSW,248,0.0,8.0,89,0.00,,,0.00,0.000000,,2013-03-04 03:41:00,
2013-03-03 20:01:00,42.0,39.0,-100.00,WSW,248,0.0,8.0,89,0.00,,,0.00,0.000000,,2013-03-04 04:01:00,
2013-03-03 20:11:00,42.0,39.0,-100.00,WSW,248,0.0,8.0,89,0.00,,,0.00,0.000000,,2013-03-04 04:11:00,
2013-03-03 20:22:00,42.0,39.0,-100.00,WSW,248,0.0,8.0,89,0.00,,,0.00,0.000000,,2013-03-04 04:22:00,
2013-03-03 20:31:00,42.0,39.0,-100.00,WSW,248,0.0,8.0,89,0.00,,,0.00,0.000000,,2013-03-04 04:31:00,
2013-03-03 20:41:00,38.0,36.0,-100.00,NNW,348,0.0,35.0,92,0.00,,,0.00,0.000000,,2013-03-04 04:41:00,
2013-03-03 21:01:00,38.0,36.0,-100.00,NNW,348,0.0,35.0,92,0.00,,,0.00,0.000000,,2013-03-04 05:01:00,
2013-03-03 21:11:00,38.0,36.0,-100.00,NNW,348,0.0,35.0,92,0.00,,,0.00,0.000000,,2013-03-04 05:11:00,
2013-03-03 21:22:00,38.0,36.0,-100.00,NNW,348,0.0,35.0,92,0.00,,,0.00,0.000000,,2013-03-04 05:22:00,
2013-03-03 21:31:00,38.0,36.0,-100.00,NNW,348,0.0,35.0,92,0.00,,,0.00,0.000000,,2013-03-04 05:31:00,
2013-03-03 21:41:00,36.0,35.0,-100.00,WNW,300,0.0,4.0,98,0.00,,,0.00,0.000000,,2013-03-04 05:41:00,
2013-03-03 22:01:00,36.0,35.0,-100.00,WNW,300,0.0,4.0,98,0.00,,,0.00,0.000000,,2013-03-04 06:01:00,
2013-03-03 22:11:00,36.0,35.0,-100.00,WNW,300,0.0,4.0,98,0.00,,,0.00,0.000000,,2013-03-04 06:11:00,
2013-03-03 22:21:00,36.0,35.0,-100.00,WNW,300,0.0,4.0,98,0.00,,,0.00,0.000000,,2013-03-04 06:21:00,
2013-03-03 22:31:00,36.0,35.0,-100.00,WNW,300,0.0,4.0,98,0.00,,,0.00,0.000000,,2013-03-04 06:31:00,
2013-03-03 22:41:00,36.0,36.0,-100.00,WNW,287,0.0,2.0,100,0.00,,,0.00,0.000000,,2013-03-04 06:41:00,
2013-03-03 23:01:00,36.0,36.0,-100.00,WNW,287,0.0,2.0,100,0.00,,,0.00,0.000000,,2013-03-04 07:01:00,
2013-03-03 23:11:00,36.0,36.0,-100.00,WNW,287,0.0,2.0,100,0.00,,,0.00,0.000000,,2013-03-04 07:11:00,
2013-03-03 23:21:00,36.0,36.0,-100.00,WNW,287,0.0,2.0,100,0.00,,,0.00,0.000000,,2013-03-04 07:21:00,
2013-03-03 23:32:00,36.0,36.0,-100.00,WNW,287,0.0,2.0,100,0.00,,,0.00,0.000000,,2013-03-04 07:32:00,
2013-03-03 23:41:00,33.0,33.0,-100.00,NNW,339,0.0,2.0,100,0.00,,,0.00,0.000000,,2013-03-04 07:41:00,